TimeCDT,TemperatureF,Dew PointF,Humidity,Sea Level PressureIn,VisibilityMPH,Wind Direction,Wind SpeedMPH,Gust SpeedMPH,PrecipitationIn,Events,Conditions,WindDirDegrees,DateUTC
12:53 AM,36.0,21.9,57,30.33,10.0,East,9.2,-,N/A,,Clear,80,2013-04-03 05:53:00
1:53 AM,37.0,21.0,52,30.35,10.0,East,10.4,-,N/A,,Clear,100,2013-04-03 06:53:00
2:53 AM,36.0,21.0,55,30.34,10.0,East,9.2,-,N/A,,Clear,100,2013-04-03 07:53:00
3:53 AM,34.0,21.0,59,30.35,10.0,East,6.9,-,N/A,,Clear,100,2013-04-03 08:53:00
4:53 AM,33.1,21.0,61,30.36,10.0,East,5.8,-,N/A,,Clear,100,2013-04-03 09:53:00
5:53 AM,33.1,21.0,61,30.37,10.0,Calm,Calm,-,N/A,,Clear,0,2013-04-03 10:53:00
6:53 AM,32.0,21.0,64,30.38,10.0,ESE,4.6,-,N/A,,Clear,120,2013-04-03 11:53:00
7:53 AM,33.1,21.9,64,30.40,10.0,Calm,Calm,-,N/A,,Clear,0,2013-04-03 12:53:00
8:53 AM,36.0,21.9,57,30.40,10.0,ESE,9.2,-,N/A,,Clear,120,2013-04-03 13:53:00
9:53 AM,41.0,21.9,47,30.40,10.0,ESE,6.9,-,N/A,,Clear,110,2013-04-03 14:53:00
10:53 AM,44.1,21.0,40,30.40,10.0,East,10.4,-,N/A,,Clear,90,2013-04-03 15:53:00
11:53 AM,46.0,19.9,35,30.39,10.0,ESE,8.1,-,N/A,,Clear,120,2013-04-03 16:53:00
12:53 PM,48.0,19.9,33,30.37,10.0,Variable,6.9,-,N/A,,Clear,0,2013-04-03 17:53:00
1:53 PM,48.9,19.9,32,30.35,10.0,East,5.8,-,N/A,,Clear,100,2013-04-03 18:53:00
2:53 PM,51.1,21.9,32,30.33,10.0,Calm,Calm,-,N/A,,Clear,0,2013-04-03 19:53:00
3:53 PM,51.1,21.9,32,30.30,10.0,Variable,3.5,-,N/A,,Clear,0,2013-04-03 20:53:00
4:53 PM,50.0,23.0,35,30.29,10.0,SSE,8.1,-,N/A,,Clear,150,2013-04-03 21:53:00
5:53 PM,51.1,23.0,33,30.28,10.0,ESE,6.9,-,N/A,,Clear,120,2013-04-03 22:53:00
6:53 PM,50.0,23.0,35,30.27,10.0,East,6.9,-,N/A,,Clear,80,2013-04-03 23:53:00
7:53 PM,48.0,23.0,37,30.27,10.0,East,4.6,-,N/A,,Clear,80,2013-04-04 00:53:00
8:53 PM,45.0,26.1,48,30.27,10.0,SSE,3.5,-,N/A,,Clear,150,2013-04-04 01:53:00
9:53 PM,41.0,25.0,53,30.28,10.0,Calm,Calm,-,N/A,,Clear,0,2013-04-04 02:53:00
10:53 PM,39.0,25.0,57,30.28,10.0,Calm,Calm,-,N/A,,Clear,0,2013-04-04 03:53:00
11:53 PM,34.0,24.1,67,30.28,10.0,NNW,3.5,-,N/A,,Clear,330,2013-04-04 04:53:00